GW2905 Weather Reports


Display with metric or nautical units.
time (UTC)temp
F
wind
direction
speed
MPH
gust
MPH
rain 1hr
in
rain 24hr
in
rain mn
in
humidity
%
barometer
mb
20260901143112 55 0 0.0 0.0 0.00 0.00 0.00 90 1011.1
20260901141601 56 0 0.0 0.0 0.00 0.00 0.00 89 1010.9
20260901140108 56 0 0.0 0.0 0.00 0.00 0.00 88 1011.0
20260901134601 56 0 0.0 0.0 0.00 0.00 0.00 87 1010.9
20260901133059 56 0 0.0 0.0 0.00 0.00 0.00 87 1010.7
20260901131553 56 0 0.0 0.0 0.00 0.00 0.00 86 1010.7
20260901124600 56 0 0.0 0.0 0.00 0.00 0.00 87 1010.5
20260901123122 56 0 0.0 0.0 0.00 0.00 0.00 87 1010.7
20260901121607 56 0 0.0 0.0 0.00 0.00 0.00 87 1010.6
20260901120105 56 0 0.0 0.0 0.00 0.00 0.00 87 1010.6
20260901114558 56 0 0.0 0.0 0.00 0.00 0.00 87 1010.7
20260901113107 56 0 0.0 0.0 0.00 0.00 0.00 86 1010.7
20260901111601 56 0 0.0 0.0 0.00 0.00 0.00 86 1010.5
20260901110109 56 0 0.0 0.0 0.00 0.00 0.00 86 1010.4
20260901104603 56 0 0.0 0.0 0.00 0.00 0.00 87 1010.3
20260901103111 56 0 0.0 0.0 0.00 0.00 0.00 87 1010.5
20260901101557 56 0 0.0 0.0 0.00 0.00 0.00 86 1010.4
20260901100108 56 0 0.0 0.0 0.00 0.00 0.00 86 1010.3
20260901094558 56 0 0.0 0.0 0.00 0.00 0.00 86 1010.1
20260901093111 57 0 0.0 0.0 0.00 0.00 0.00 85 1010.1
20260901091613 57 0 0.0 0.0 0.00 0.00 0.00 85 1009.8
20260901090100 57 0 0.0 0.0 0.00 0.00 0.00 85 1009.8
20260901084603 58 0 0.0 0.0 0.00 0.00 0.00 84 1009.8
20260901083106 58 0 0.0 0.0 0.00 0.00 0.00 83 1010.0
20260901081603 58 0 0.0 0.0 0.00 0.00 0.00 83 1010.0
20260901080104 59 0 0.0 0.0 0.00 0.00 0.00 82 1009.8
20260901074601 59 0 0.0 0.0 0.00 0.00 0.00 80 1009.8
20260901073102 60 0 0.0 0.0 0.00 0.00 0.00 79 1009.6
20260901071600 61 0 0.0 0.0 0.00 0.00 0.00 77 1009.5
20260901070059 62 0 0.0 0.0 0.00 0.00 0.00 75 1009.5
20260901064607 63 0 0.0 0.0 0.00 0.00 0.00 73 1009.3
20260901063100 65 0 0.0 0.0 0.00 0.00 0.00 73 1009.0
20260901061608 65 0 0.0 0.0 0.00 0.00 0.00 73 1008.7
20260901060107 65 0 0.0 0.0 0.00 0.00 0.00 72 1008.5
20260901054608 66 0 0.0 0.0 0.00 0.00 0.00 71 1008.2
20260901053109 67 0 0.0 0.0 0.00 0.00 0.00 68 1008.1
20260901051607 68 0 0.0 0.0 0.00 0.00 0.00 65 1008.3
20260901044620 70 0 0.0 0.0 0.00 0.00 0.00 58 1008.0
20260901043103 71 0 0.0 0.0 0.00 0.00 0.00 55 1007.8
20260901041601 71 0 0.0 0.0 0.00 0.00 0.00 53 1007.8
20260901040109 71 0 0.0 0.0 0.00 0.00 0.00 53 1007.5
20260901034602 72 0 0.0 0.0 0.00 0.00 0.00 53 1007.3
20260901033102 72 0 0.0 0.0 0.00 0.00 0.00 52 1007.2
20260901031602 72 0 0.0 0.0 0.00 0.00 0.00 52 1007.1
20260901030104 74 0 0.0 0.0 0.00 0.00 0.00 50 1007.1
20260901024609 75 0 0.0 0.0 0.00 0.00 0.00 49 1007.0
20260901023104 76 0 0.0 0.0 0.00 0.00 0.00 46 1007.0
20260901021607 77 0 0.0 0.0 0.00 0.00 0.00 45 1006.9
20260901020105 78 0 0.0 0.0 0.00 0.00 0.00 44 1006.9
20260901014603 79 0 0.0 0.0 0.00 0.00 0.00 42 1006.6
20260901013106 79 0 0.0 0.0 0.00 0.00 0.00 39 1006.6
20260901011607 80 0 0.0 0.0 0.00 0.00 0.00 37 1006.7
20260901010100 80 0 0.0 0.0 0.00 0.00 0.00 37 1006.7
20260901004605 81 0 0.0 0.0 0.00 0.00 0.00 37 1006.7
20260901003110 82 0 0.0 0.0 0.00 0.00 0.00 36 1006.7
20260901001601 82 0 0.0 0.0 0.00 0.00 0.00 39 1006.8
20260831234605 82 0 0.0 0.0 0.00 0.00 0.00 37 1007.0
20260831233104 83 0 0.0 0.0 0.00 0.00 0.00 38 1007.0
20260831231601 82 0 0.0 0.0 0.00 0.00 0.00 37 1007.0
20260831230108 83 0 0.0 0.0 0.00 0.00 0.00 37 1007.3
20260831224602 82 0 0.0 0.0 0.00 0.00 0.00 39 1007.4
20260831223103 82 0 0.0 0.0 0.00 0.00 0.00 39 1007.4
20260831221604 82 0 0.0 0.0 0.00 0.00 0.00 39 1007.5
20260831220113 83 0 0.0 0.0 0.00 0.00 0.00 39 1007.8
20260831214625 81 0 0.0 0.0 0.00 0.00 0.00 42 1007.8
20260831213102 80 0 0.0 0.0 0.00 0.00 0.00 42 1008.0
20260831211602 80 0 0.0 0.0 0.00 0.00 0.00 41 1008.0
20260831204603 79 0 0.0 0.0 0.00 0.00 0.00 42 1008.3
20260831203108 79 0 0.0 0.0 0.00 0.00 0.00 41 1008.6
20260831201602 78 0 0.0 0.0 0.00 0.00 0.00 41 1008.8
20260831200107 77 0 0.0 0.0 0.00 0.00 0.00 43 1008.9
20260831194555 77 0 0.0 0.0 0.00 0.00 0.00 43 1008.9
20260831193100 76 0 0.0 0.0 0.00 0.00 0.00 44 1009.3
20260831191601 76 0 0.0 0.0 0.00 0.00 0.00 47 1009.3
20260831190114 73 0 0.0 0.0 0.00 0.00 0.00 49 1009.5
20260831184604 73 0 0.0 0.0 0.00 0.00 0.00 52 1009.6
20260831183105 73 0 0.0 0.0 0.00 0.00 0.00 53 1009.7
20260831181600 70 0 0.0 0.0 0.00 0.00 0.00 58 1009.9
20260831180100 69 0 0.0 0.0 0.00 0.00 0.00 62 1010.0
20260831174610 67 0 0.0 0.0 0.00 0.00 0.00 62 1010.3
20260831173103 66 0 0.0 0.0 0.00 0.00 0.00 64 1010.2
20260831171600 64 0 0.0 0.0 0.00 0.00 0.00 70 1010.4
20260831170056 63 0 0.0 0.0 0.00 0.00 0.00 70 1010.6
20260831164609 62 0 0.0 0.0 0.00 0.00 0.00 74 1010.9
20260831163103 61 0 0.0 0.0 0.00 0.00 0.00 74 1010.9
20260831161558 60 0 0.0 0.0 0.00 0.00 0.00 76 1011.0
20260831160106 59 0 0.0 0.0 0.00 0.00 0.00 78 1011.1
20260831154624 58 0 0.0 0.0 0.00 0.00 0.00 80 1011.0
20260831153059 57 0 0.0 0.0 0.00 0.00 0.00 83 1010.9
20260831151605 56 0 0.0 0.0 0.00 0.00 0.00 83 1011.1
20260831144558 55 0 0.0 0.0 0.00 0.00 0.00 85 1011.2